{"data":{"norad_id":55644,"intl_designator":"2023-021S","name":"STARLINK-5502","alt_names":[],"object_type":"PAYLOAD","status":"ACTIVE","operator":null,"country":"US","launch_date":"2023-02-17","launch_site_code":"AFWTR","launch_vehicle":null,"mission":null,"orbit_class":"UNKNOWN","rcs_meters":null,"size_class":null,"mass_kg":null,"dimensions":null,"purposes":["comms"],"wikipedia_slug":null,"has_3d_model":false,"image_url":null,"decayed_at":null,"tle_current":{"epoch":"2026-05-24T22:54:42.757920Z","epoch_age_seconds":79045,"freshness":"FRESH","line1":"1 55644U 23021S   26144.95466155 -.00000967  00000+0 -73235-4 0  9997","line2":"2 55644  69.9995 352.2276 0002620 271.4852  88.6006 14.98334016180218","mean_motion":14.98334016,"eccentricity":0.000262,"inclination_deg":69.9995,"raan_deg":352.2276,"arg_perigee_deg":271.4852,"mean_anomaly_deg":88.6006,"bstar":-7.3235e-5,"rev_number":18021,"period_min":96.10674152912,"perigee_km":570.22252453982,"apogee_km":573.86441910706,"semimajor_km":6950.1804718234,"source":"CELESTRAK","updated_at":"2026-05-25T13:38:17.849854Z"}}}